COSMOS 2214

Satellite information

Favourite Embed

Satellite Type and Status

PAYLOADIN ORBIT

Key statistics

Satellite COSMOS 2214 at a glance.

Uptime

12061

Days in orbit

Revolutions

≈ 12.6

Per day

Orbit

LEO

Low Earth Orbit

Inclination

82.6

Latest

Satellite identification and parameters

Extended collection of information and parameters for COSMOS 2214.

Object identification

Identified? True

Debris? False

Object name: COSMOS 2214

International designator: 1992-068D

Object number (NORAD): 22185

Object ID (CCSDS): 22185

Country: COMMONWEALTH OF INDEPENDENT STATES (CIS)

Current information (Y/N): Y

RCS size: LARGE

Orbital parameters

Period: 114.141 minutes

Inclination: 82.5897 deg

SMA: 7794.501 km

Apoapsis: 1422.848 km

Periapsis: 1409.883 km

RAAN: 142.2389 deg

Eccentricy: 0.00083168

Argument of periapsis: 325.5085 deg

Mean anomaly: 45.5242 deg

Mean motion: 12.61596027 rev/day

Mean motion (dot): 0.0000003 rev/day2

B* drag term: 0.00011138275 1/REarth

Two-line elements (TLE)

Creation date: Oct. 27, 2025, 2:46 a.m.

Reference frame: TEME

Reference center: EARTH

Epoch: Oct. 26, 2025, 7:45 p.m. UTC

TLE line 0: 0 COSMOS 2214

TLE line 1: 1 22185U 92068D 25299.82294155 .00000030 00000-0 11138-3 0 9996

TLE line 2: 2 22185 82.5897 142.2389 0008317 325.5085 45.5242 12.61596027520227

Live tracking on map

Real-time ground track for satellite COSMOS 2214.

In-orbit conjunctions

A list of the most updated potential collisions computed for object COSMOS 2214.

Target Orbit TCA Probability of collision Miss distance Type
DELTA 1 DEB LEO 2025-04-04 12:11:11 0.0006393168 551.0 (m) DEBRIS

Associated space launch

Second generation store-dump military communications satellite

COSMOS 2214 was lifted into orbit during the mission ‘Tsiklon-3 | Strela-3 83 to 88’, on board a Tsiklon-3 space rocket.

The launch took place on Oct. 20, 1992, 12:58 p.m. from 32/1.

For more information about the launch, click the button.

Launch to space Tsiklon-3 | Strela-3 83 to 88
Tsiklon-3 | Strela-3 83 to 88

Agency: N/A

Status: Launch Successful

Launch date: Oct. 20, 1992, 12:58 p.m. UTC

Rocket: Tsiklon-3

Launch pad: 32/1

Location: Plesetsk Cosmodrome, Russian Federation

...

Latest news about this satellite

There are no fresh news available about this satellite. Check back as we update our databases every day.


Newsletter sign-up

Weekly statistics, charts and insights to help you stay on top of the space industry.